Starlink 32809

operational
NORAD ID: 62849 Int'l Des: 2025-019 Owner: SPXS Country: US Constellation: starlink
LEOCIRCULAR

About Starlink 32809

Description loading...

Live Position

Loading 3D Globe...

Upcoming Passes

Altitude History

Altitude vs Time

uPlot chart will show altitude changes over time

Two-Line Element Set

1 62849U 25019W 25257.01019770 .00028072 00000-0 10251-2 0 9992
2 62849 43.0014 6.4679 0002290 272.8149 87.2440 15.27601225 35230
Epoch: Sep 14, 2025 • Age: 36 hours

Current Status

Altitude 494.5 km
Velocity 7.62 km/s
Sub-Earth Point -43.06°S, 89.62°E
Launch Date Jan 27, 2025
Age 0.6 years
Type internet

Technical Details

Classification Payload
Mass 730.00 kg
Dry Mass 700.00 kg
Total Mass 730.00 kg
Length 0.30 m
Diameter 4.10 m
Span 29.00 m
Shape Box + pan
Manufacturer SPXS
Bus Type Starlink V2M
Phase Status In Orbit
Owner/State SPXS/US

Large Constellations

Loading constellations...